Time,TemperatureF,DewpointF,PressureIn,WindDirection,WindDirectionDegrees,WindSpeedMPH,WindSpeedGustMPH,Humidity,HourlyPrecipIn,Conditions,Clouds,dailyrainin,SoftwareType,DateUTC
2013-01-10 00:15:00,39.4,26.3,30.28,West,270,4.2,-999.0,59,-99.99,,,0.00,Acu-Link.com,2013-01-10 05:15:00,
2013-01-10 00:30:00,39.7,26.2,30.29,WSW,247,4.7,-999.0,58,-99.99,,,0.00,Acu-Link.com,2013-01-10 05:30:00,
2013-01-10 00:45:00,39.0,26.3,30.31,West,270,1.1,-999.0,60,-99.99,,,0.00,Acu-Link.com,2013-01-10 05:45:00,
2013-01-10 01:00:00,37.8,26.4,30.31,WNW,292,2.2,-999.0,63,-99.99,,,0.00,Acu-Link.com,2013-01-10 06:00:00,
2013-01-10 01:16:00,37.0,26.0,30.31,WSW,247,2.2,-999.0,64,-99.99,,,0.00,Acu-Link.com,2013-01-10 06:16:00,
2013-01-10 01:31:00,36.1,25.9,30.33,North,0,0.0,-999.0,66,-99.99,,,0.00,Acu-Link.com,2013-01-10 06:31:00,
2013-01-10 01:46:00,35.6,25.7,30.34,West,270,1.7,-999.0,67,-99.99,,,0.00,Acu-Link.com,2013-01-10 06:46:00,
2013-01-10 02:01:00,35.1,25.6,30.35,WNW,292,1.7,-999.0,68,-99.99,,,0.00,Acu-Link.com,2013-01-10 07:01:00,
2013-01-10 02:16:00,35.1,25.6,30.36,West,270,2.2,-999.0,68,-99.99,,,0.00,Acu-Link.com,2013-01-10 07:16:00,
2013-01-10 02:32:00,34.2,25.8,30.37,WNW,292,1.7,-999.0,71,-99.99,,,0.00,Acu-Link.com,2013-01-10 07:32:00,
2013-01-10 02:47:00,33.4,25.4,30.38,West,270,2.2,-999.0,72,-99.99,,,0.00,Acu-Link.com,2013-01-10 07:47:00,
2013-01-10 03:02:00,32.9,25.2,30.39,WNW,292,1.1,-999.0,73,-99.99,,,0.00,Acu-Link.com,2013-01-10 08:02:00,
2013-01-10 03:17:00,32.2,25.2,30.40,West,270,1.7,-999.0,75,-99.99,,,0.00,Acu-Link.com,2013-01-10 08:17:00,
2013-01-10 03:32:00,31.8,25.1,30.40,West,270,1.7,-999.0,76,-99.99,,,0.00,Acu-Link.com,2013-01-10 08:32:00,
2013-01-10 03:48:00,31.3,24.9,30.40,West,270,2.2,-999.0,77,-99.99,,,0.00,Acu-Link.com,2013-01-10 08:48:00,
2013-01-10 04:09:00,30.7,25.0,30.41,West,270,1.7,-999.0,79,-99.99,,,0.00,Acu-Link.com,2013-01-10 09:09:00,
2013-01-10 04:24:00,29.8,24.7,30.42,NNW,337,1.1,-999.0,81,-99.99,,,0.00,Acu-Link.com,2013-01-10 09:24:00,
2013-01-10 04:39:00,29.3,24.8,30.42,West,270,1.1,-999.0,83,-99.99,,,0.00,Acu-Link.com,2013-01-10 09:39:00,
2013-01-10 04:54:00,28.4,24.2,30.42,NW,315,1.1,-999.0,84,-99.99,,,0.00,Acu-Link.com,2013-01-10 09:54:00,
2013-01-10 05:09:00,28.2,24.3,30.42,West,270,1.7,-999.0,85,-99.99,,,0.00,Acu-Link.com,2013-01-10 10:09:00,
2013-01-10 05:25:00,28.2,24.3,30.43,West,270,1.1,-999.0,85,-99.99,,,0.00,Acu-Link.com,2013-01-10 10:25:00,
2013-01-10 05:40:00,27.9,24.3,30.44,WNW,292,1.1,-999.0,86,-99.99,,,0.00,Acu-Link.com,2013-01-10 10:40:00,
2013-01-10 05:55:00,27.9,24.3,30.44,WNW,292,1.1,-999.0,86,-99.99,,,0.00,Acu-Link.com,2013-01-10 10:55:00,
2013-01-10 06:10:00,28.0,24.4,30.46,West,270,1.7,-999.0,86,-99.99,,,0.00,Acu-Link.com,2013-01-10 11:10:00,
2013-01-10 06:26:00,28.4,24.5,30.46,West,270,2.2,-999.0,85,-99.99,,,0.00,Acu-Link.com,2013-01-10 11:26:00,
2013-01-10 06:41:00,28.2,24.3,30.47,WNW,292,1.7,-999.0,85,-99.99,,,0.00,Acu-Link.com,2013-01-10 11:41:00,
2013-01-10 06:56:00,27.1,23.5,30.47,SSW,202,0.0,-999.0,86,-99.99,,,0.00,Acu-Link.com,2013-01-10 11:56:00,
2013-01-10 07:11:00,26.4,23.9,30.48,West,270,0.0,-999.0,90,-99.99,,,0.00,Acu-Link.com,2013-01-10 12:11:00,
2013-01-10 07:26:00,26.8,24.3,30.48,West,270,0.0,-999.0,90,-99.99,,,0.00,Acu-Link.com,2013-01-10 12:26:00,
2013-01-10 07:42:00,27.3,24.2,30.49,West,270,2.2,-999.0,88,-99.99,,,0.00,Acu-Link.com,2013-01-10 12:42:00,
2013-01-10 07:57:00,28.6,24.7,30.50,WNW,292,2.2,-999.0,85,-99.99,,,0.00,Acu-Link.com,2013-01-10 12:57:00,
2013-01-10 08:12:00,29.3,24.8,30.51,West,270,0.0,-999.0,83,-99.99,,,0.00,Acu-Link.com,2013-01-10 13:12:00,
2013-01-10 08:27:00,29.7,24.6,30.52,SE,135,0.0,-999.0,81,-99.99,,,0.00,Acu-Link.com,2013-01-10 13:27:00,
2013-01-10 08:42:00,31.6,25.5,30.53,East,90,0.0,-999.0,78,-99.99,,,0.00,Acu-Link.com,2013-01-10 13:42:00,
2013-01-10 08:58:00,35.2,26.8,30.53,East,90,0.0,-999.0,71,-99.99,,,0.00,Acu-Link.com,2013-01-10 13:58:00,
2013-01-10 09:13:00,30.6,25.2,30.54,NE,45,2.2,-999.0,80,-99.99,,,0.00,Acu-Link.com,2013-01-10 14:13:00,
2013-01-10 09:28:00,33.3,25.9,30.54,ESE,112,1.7,-999.0,74,-99.99,,,0.00,Acu-Link.com,2013-01-10 14:28:00,
2013-01-10 09:43:00,32.7,25.3,30.53,East,90,2.7,-999.0,74,-99.99,,,0.00,Acu-Link.com,2013-01-10 14:43:00,
2013-01-10 09:58:00,34.2,25.8,30.53,ESE,112,1.7,-999.0,71,-99.99,,,0.00,Acu-Link.com,2013-01-10 14:58:00,
2013-01-10 10:14:00,36.7,27.5,30.53,ESE,112,2.7,-999.0,69,-99.99,,,0.00,Acu-Link.com,2013-01-10 15:14:00,
2013-01-10 10:29:00,35.8,27.7,30.53,ESE,112,2.2,-999.0,72,-99.99,,,0.00,Acu-Link.com,2013-01-10 15:29:00,
2013-01-10 10:44:00,38.5,27.8,30.53,East,90,1.7,-999.0,65,-99.99,,,0.00,Acu-Link.com,2013-01-10 15:44:00,
2013-01-10 10:59:00,40.3,28.3,30.52,ENE,67,2.2,-999.0,62,-99.99,,,0.00,Acu-Link.com,2013-01-10 15:59:00,
2013-01-10 11:15:00,40.3,27.9,30.51,East,90,2.2,-999.0,61,-99.99,,,0.00,Acu-Link.com,2013-01-10 16:15:00,
2013-01-10 11:30:00,42.4,28.3,30.50,WSW,247,2.7,-999.0,57,-99.99,,,0.00,Acu-Link.com,2013-01-10 16:30:00,
2013-01-10 11:45:00,42.8,28.2,30.49,SW,225,1.7,-999.0,56,-99.99,,,0.00,Acu-Link.com,2013-01-10 16:45:00,
2013-01-10 12:00:00,42.6,28.4,30.48,SW,225,5.3,-999.0,57,-99.99,,,0.00,Acu-Link.com,2013-01-10 17:00:00,
2013-01-10 12:15:00,42.8,27.8,30.47,East,90,2.7,-999.0,55,-99.99,,,0.00,Acu-Link.com,2013-01-10 17:15:00,
2013-01-10 12:31:00,42.4,27.4,30.47,ENE,67,3.7,-999.0,55,-99.99,,,0.00,Acu-Link.com,2013-01-10 17:31:00,
2013-01-10 12:46:00,42.6,28.0,30.46,WSW,247,2.2,-999.0,56,-99.99,,,0.00,Acu-Link.com,2013-01-10 17:46:00,
2013-01-10 13:01:00,43.9,27.9,30.46,ENE,67,2.7,-999.0,53,-99.99,,,0.00,Acu-Link.com,2013-01-10 18:01:00,
2013-01-10 13:16:00,42.4,27.8,30.46,SE,135,0.0,-999.0,56,-99.99,,,0.00,Acu-Link.com,2013-01-10 18:16:00,
2013-01-10 13:31:00,44.1,28.1,30.46,SW,225,2.7,-999.0,53,-99.99,,,0.00,Acu-Link.com,2013-01-10 18:31:00,
2013-01-10 13:47:00,43.5,27.5,30.46,ESE,112,1.7,-999.0,53,-99.99,,,0.00,Acu-Link.com,2013-01-10 18:47:00,
2013-01-10 14:02:00,42.6,27.1,30.46,ESE,112,2.7,-999.0,54,-99.99,,,0.00,Acu-Link.com,2013-01-10 19:02:00,
2013-01-10 14:17:00,43.2,27.2,30.46,ESE,112,3.7,-999.0,53,-99.99,,,0.00,Acu-Link.com,2013-01-10 19:17:00,
2013-01-10 14:32:00,42.6,27.1,30.46,East,90,1.7,-999.0,54,-99.99,,,0.00,Acu-Link.com,2013-01-10 19:32:00,
2013-01-10 14:47:00,43.9,27.4,30.47,WNW,292,1.1,-999.0,52,-99.99,,,0.00,Acu-Link.com,2013-01-10 19:47:00,
2013-01-10 15:03:00,43.3,27.3,30.46,West,270,2.2,-999.0,53,-99.99,,,0.00,Acu-Link.com,2013-01-10 20:03:00,
2013-01-10 15:18:00,42.4,27.4,30.46,ESE,112,2.7,-999.0,55,-99.99,,,0.00,Acu-Link.com,2013-01-10 20:18:00,
2013-01-10 15:33:00,43.2,27.2,30.47,East,90,2.2,-999.0,53,-99.99,,,0.00,Acu-Link.com,2013-01-10 20:33:00,
2013-01-10 15:48:00,43.2,28.1,30.46,West,270,0.0,-999.0,55,-99.99,,,0.00,Acu-Link.com,2013-01-10 20:48:00,
2013-01-10 16:03:00,42.1,28.8,30.46,NW,315,0.0,-999.0,59,-99.99,,,0.00,Acu-Link.com,2013-01-10 21:03:00,
2013-01-10 16:19:00,41.4,28.2,30.47,West,270,0.0,-999.0,59,-99.99,,,0.00,Acu-Link.com,2013-01-10 21:19:00,
2013-01-10 16:34:00,39.7,27.4,30.46,West,270,1.1,-999.0,61,-99.99,,,0.00,Acu-Link.com,2013-01-10 21:34:00,
2013-01-10 16:49:00,37.9,27.6,30.45,West,270,1.1,-999.0,66,-99.99,,,0.00,Acu-Link.com,2013-01-10 21:49:00,
2013-01-10 17:04:00,36.9,26.3,30.45,West,270,0.0,-999.0,65,-99.99,,,0.00,Acu-Link.com,2013-01-10 22:04:00,
2013-01-10 17:20:00,35.8,26.6,30.46,West,270,0.0,-999.0,69,-99.99,,,0.00,Acu-Link.com,2013-01-10 22:20:00,
2013-01-10 17:35:00,35.2,27.4,30.46,West,270,0.0,-999.0,73,-99.99,,,0.00,Acu-Link.com,2013-01-10 22:35:00,
2013-01-10 17:50:00,34.9,26.8,30.46,West,270,0.0,-999.0,72,-99.99,,,0.00,Acu-Link.com,2013-01-10 22:50:00,
2013-01-10 18:05:00,34.7,26.9,30.47,West,270,0.0,-999.0,73,-99.99,,,0.00,Acu-Link.com,2013-01-10 23:05:00,
2013-01-10 18:20:00,34.2,27.4,30.46,NW,315,0.0,-999.0,76,-99.99,,,0.00,Acu-Link.com,2013-01-10 23:20:00,
2013-01-10 18:36:00,33.8,27.7,30.47,West,270,0.0,-999.0,78,-99.99,,,0.00,Acu-Link.com,2013-01-10 23:36:00,
2013-01-10 18:51:00,33.3,26.9,30.46,West,270,0.0,-999.0,77,-99.99,,,0.00,Acu-Link.com,2013-01-10 23:51:00,
2013-01-10 19:06:00,33.1,27.9,30.47,NW,315,0.0,-999.0,81,-99.99,,,0.00,Acu-Link.com,2013-01-11 00:06:00,
2013-01-10 19:21:00,32.5,27.3,30.47,West,270,0.0,-999.0,81,-99.99,,,0.00,Acu-Link.com,2013-01-11 00:21:00,
2013-01-10 19:36:00,32.7,26.9,30.46,NW,315,0.0,-999.0,79,-99.99,,,0.00,Acu-Link.com,2013-01-11 00:36:00,
2013-01-10 19:52:00,32.5,27.0,30.46,West,270,0.0,-999.0,80,-99.99,,,0.00,Acu-Link.com,2013-01-11 00:52:00,
2013-01-10 20:07:00,32.4,26.9,30.46,West,270,0.0,-999.0,80,-99.99,,,0.00,Acu-Link.com,2013-01-11 01:07:00,
2013-01-10 20:22:00,32.0,28.0,30.46,West,270,0.0,-999.0,85,-99.99,,,0.00,Acu-Link.com,2013-01-11 01:22:00,
2013-01-10 20:37:00,32.0,27.7,30.47,SSE,157,0.0,-999.0,84,-99.99,,,0.00,Acu-Link.com,2013-01-11 01:37:00,
2013-01-10 20:52:00,31.8,28.1,30.45,NW,315,0.0,-999.0,86,-99.99,,,0.00,Acu-Link.com,2013-01-11 01:52:00,
2013-01-10 21:23:00,30.7,27.3,30.45,East,90,0.0,-999.0,87,-99.99,,,0.00,Acu-Link.com,2013-01-11 02:23:00,
2013-01-10 21:38:00,30.2,27.4,30.45,WSW,247,0.0,-999.0,89,-99.99,,,0.00,Acu-Link.com,2013-01-11 02:38:00,
2013-01-10 21:53:00,29.8,26.4,30.46,West,270,0.0,-999.0,87,-99.99,,,0.00,Acu-Link.com,2013-01-11 02:53:00,
2013-01-10 22:08:00,30.2,26.8,30.46,NNW,337,0.0,-999.0,87,-99.99,,,0.00,Acu-Link.com,2013-01-11 03:08:00,
2013-01-10 22:24:00,30.2,27.4,30.46,WNW,292,0.0,-999.0,89,-99.99,,,0.00,Acu-Link.com,2013-01-11 03:24:00,
2013-01-10 22:39:00,30.0,26.6,30.45,SSE,157,0.0,-999.0,87,-99.99,,,0.00,Acu-Link.com,2013-01-11 03:39:00,
2013-01-10 22:54:00,29.8,26.7,30.45,WNW,292,0.0,-999.0,88,-99.99,,,0.00,Acu-Link.com,2013-01-11 03:54:00,
2013-01-10 23:09:00,29.8,27.0,30.44,North,0,0.0,-999.0,89,-99.99,,,0.00,Acu-Link.com,2013-01-11 04:09:00,
2013-01-10 23:25:00,29.8,27.5,30.43,NNE,22,0.0,-999.0,91,-99.99,,,0.00,Acu-Link.com,2013-01-11 04:25:00,
2013-01-10 23:40:00,29.8,27.5,30.43,NW,315,0.0,-999.0,91,-99.99,,,0.00,Acu-Link.com,2013-01-11 04:40:00,
2013-01-10 23:55:00,30.0,26.9,30.42,NW,315,0.0,-999.0,88,-99.99,,,0.00,Acu-Link.com,2013-01-11 04:55:00,